| time (UTC) | temp F | wind direction | speed MPH | gust MPH | rain 1hr in | rain 24hr in | rain mn in | humidity % | barometer mb |
| 20260509054504 | 51 | 157 | 0.0 | 0.0 | 0.00 | 0.00 | 0.00 | 80 | 1023.5 |
| 20260509051558 | 45 | 147 | 0.0 | 0.0 | 0.00 | 0.00 | 0.00 | 86 | 1023.5 |
| 20260509050059 | 42 | 146 | 0.0 | 0.0 | 0.00 | 0.00 | 0.00 | 85 | 1023.4 |
| 20260509044556 | 41 | 146 | 0.0 | 0.0 | 0.00 | 0.00 | 0.00 | 84 | 1023.4 |
| 20260509041557 | 38 | 146 | 0.0 | 0.0 | 0.00 | 0.00 | 0.00 | 84 | 1023.3 |
| 20260509040125 | 38 | 147 | 0.0 | 0.0 | 0.00 | 0.00 | 0.00 | 84 | 1023.3 |
| 20260509034600 | 38 | 146 | 0.0 | 0.0 | 0.00 | 0.00 | 0.00 | 84 | 1023.4 |
| 20260509031558 | 38 | 146 | 0.0 | 0.0 | 0.00 | 0.00 | 0.00 | 83 | 1023.6 |
| 20260509030051 | 38 | 148 | 0.0 | 0.0 | 0.00 | 0.00 | 0.00 | 83 | 1023.5 |
| 20260509024550 | 39 | 148 | 0.0 | 0.0 | 0.00 | 0.00 | 0.00 | 82 | 1023.6 |
| 20260509021547 | 40 | 148 | 0.0 | 0.0 | 0.00 | 0.00 | 0.00 | 81 | 1023.7 |
| 20260509020045 | 41 | 146 | 0.0 | 0.0 | 0.00 | 0.00 | 0.00 | 80 | 1023.7 |
| 20260509014542 | 41 | 147 | 0.0 | 0.0 | 0.00 | 0.00 | 0.00 | 79 | 1023.6 |
| 20260509011553 | 44 | 146 | 0.0 | 0.0 | 0.00 | 0.00 | 0.00 | 78 | 1023.6 |
| 20260509010045 | 44 | 148 | 0.0 | 0.0 | 0.00 | 0.00 | 0.00 | 77 | 1023.9 |
| 20260509004548 | 43 | 138 | 0.0 | 0.0 | 0.00 | 0.00 | 0.00 | 79 | 1023.8 |
| 20260509001537 | 43 | 116 | 0.0 | 0.0 | 0.00 | 0.00 | 0.00 | 77 | 1023.9 |
| 20260509000035 | 43 | 117 | 0.0 | 0.0 | 0.00 | 0.00 | 0.00 | 76 | 1023.8 |
| 20260508234532 | 44 | 116 | 0.0 | 0.0 | 0.00 | 0.00 | 0.00 | 75 | 1023.8 |
| 20260508231529 | 45 | 116 | 0.0 | 0.0 | 0.00 | 0.00 | 0.00 | 73 | 1023.8 |
| 20260508230027 | 46 | 144 | 0.0 | 0.0 | 0.00 | 0.00 | 0.00 | 72 | 1023.9 |
| 20260508224527 | 46 | 144 | 0.0 | 0.0 | 0.00 | 0.00 | 0.00 | 71 | 1023.8 |
| 20260508221523 | 47 | 125 | 0.0 | 0.0 | 0.00 | 0.00 | 0.00 | 71 | 1023.8 |
| 20260508220024 | 47 | 126 | 0.0 | 0.0 | 0.00 | 0.00 | 0.00 | 71 | 1023.7 |
| 20260508214522 | 46 | 123 | 0.0 | 0.0 | 0.00 | 0.00 | 0.00 | 71 | 1023.7 |
| 20260508211521 | 46 | 136 | 0.0 | 0.0 | 0.00 | 0.00 | 0.00 | 71 | 1023.5 |
| 20260508210021 | 46 | 136 | 0.0 | 0.0 | 0.00 | 0.00 | 0.00 | 70 | 1023.5 |
| 20260508204530 | 47 | 138 | 0.0 | 0.0 | 0.00 | 0.00 | 0.00 | 69 | 1023.3 |
| 20260508201520 | 48 | 138 | 0.0 | 0.0 | 0.00 | 0.00 | 0.00 | 67 | 1023.1 |
| 20260508200017 | 49 | 137 | 0.0 | 0.0 | 0.00 | 0.00 | 0.00 | 65 | 1023.0 |
| 20260508194515 | 50 | 137 | 0.0 | 0.0 | 0.00 | 0.00 | 0.00 | 63 | 1022.9 |
| 20260508191528 | 53 | 245 | 0.0 | 0.0 | 0.00 | 0.00 | 0.00 | 57 | 1022.8 |
| 20260508190027 | 54 | 360 | 0.0 | 0.0 | 0.00 | 0.00 | 0.00 | 54 | 1022.7 |
| 20260508184528 | 55 | 245 | 0.0 | 0.0 | 0.00 | 0.00 | 0.00 | 49 | 1022.6 |
| 20260508181518 | 57 | 360 | 0.0 | 0.0 | 0.00 | 0.00 | 0.00 | 48 | 1022.5 |
| 20260508180020 | 57 | 360 | 0.0 | 0.0 | 0.00 | 0.00 | 0.00 | 46 | 1022.5 |
| 20260508174516 | 58 | 277 | 0.0 | 0.0 | 0.00 | 0.00 | 0.00 | 45 | 1022.5 |
| 20260508171514 | 59 | 296 | 0.0 | 0.0 | 0.00 | 0.00 | 0.00 | 43 | 1022.2 |
| 20260508170016 | 60 | 298 | 0.0 | 0.0 | 0.00 | 0.00 | 0.00 | 43 | 1022.2 |
| 20260508164514 | 61 | 360 | 0.0 | 0.0 | 0.00 | 0.00 | 0.00 | 43 | 1022.1 |
| 20260508161511 | 62 | 299 | 0.0 | 0.0 | 0.00 | 0.00 | 0.00 | 42 | 1022.1 |
| 20260508160025 | 63 | 360 | 0.0 | 0.0 | 0.00 | 0.00 | 0.00 | 40 | 1022.1 |
| 20260508154511 | 64 | 360 | 0.0 | 0.0 | 0.00 | 0.00 | 0.00 | 40 | 1022.2 |
| 20260508151516 | 64 | 313 | 0.0 | 0.0 | 0.00 | 0.00 | 0.00 | 37 | 1022.2 |
| 20260508150020 | 64 | 360 | 0.0 | 0.0 | 0.00 | 0.00 | 0.00 | 36 | 1022.2 |
| 20260508144515 | 65 | 297 | 0.0 | 0.0 | 0.00 | 0.00 | 0.00 | 36 | 1022.2 |
| 20260508141510 | 65 | 269 | 0.0 | 0.0 | 0.00 | 0.00 | 0.00 | 36 | 1022.2 |
| 20260508140016 | 65 | 237 | 0.0 | 0.0 | 0.00 | 0.00 | 0.00 | 37 | 1022.2 |
| 20260508134521 | 66 | 360 | 0.0 | 0.0 | 0.00 | 0.00 | 0.00 | 37 | 1022.3 |
| 20260508131516 | 67 | 288 | 0.0 | 0.0 | 0.00 | 0.00 | 0.00 | 34 | 1022.3 |
| 20260508130017 | 67 | 360 | 0.0 | 0.0 | 0.00 | 0.00 | 0.00 | 29 | 1022.3 |
| 20260508124515 | 65 | 203 | 0.0 | 0.0 | 0.00 | 0.00 | 0.00 | 32 | 1022.3 |
| 20260508121523 | 67 | 321 | 0.0 | 0.0 | 0.00 | 0.00 | 0.00 | 27 | 1022.3 |
| 20260508120007 | 67 | 32 | 0.0 | 0.0 | 0.00 | 0.00 | 0.00 | 27 | 1022.4 |
| 20260508114506 | 67 | 360 | 0.0 | 0.0 | 0.00 | 0.00 | 0.00 | 26 | 1022.4 |
| 20260508111510 | 66 | 360 | 0.0 | 0.0 | 0.00 | 0.00 | 0.00 | 28 | 1022.4 |
| 20260508110010 | 65 | 184 | 0.0 | 0.0 | 0.00 | 0.00 | 0.00 | 27 | 1022.5 |
| 20260508104507 | 66 | 159 | 0.0 | 0.0 | 0.00 | 0.00 | 0.00 | 28 | 1022.4 |
| 20260508101502 | 65 | 124 | 0.0 | 0.0 | 0.00 | 0.00 | 0.00 | 28 | 1022.5 |
| 20260508100001 | 65 | 279 | 0.0 | 0.0 | 0.00 | 0.00 | 0.00 | 29 | 1022.5 |
| 20260508094611 | 65 | 265 | 0.0 | 0.0 | 0.00 | 0.00 | 0.00 | 29 | 1022.4 |
| 20260508091605 | 64 | 360 | 0.0 | 0.0 | 0.00 | 0.00 | 0.00 | 30 | 1022.5 |
| 20260508090059 | 64 | 26 | 0.0 | 0.0 | 0.00 | 0.00 | 0.00 | 30 | 1022.6 |
| 20260508084557 | 63 | 28 | 0.0 | 0.0 | 0.00 | 0.00 | 0.00 | 29 | 1022.5 |
| 20260508081528 | 62 | 355 | 0.0 | 0.0 | 0.00 | 0.00 | 0.00 | 29 | 1022.6 |
| 20260508080025 | 61 | 71 | 0.0 | 0.0 | 0.00 | 0.00 | 0.00 | 31 | 1022.6 |
| 20260508074529 | 61 | 76 | 0.0 | 0.0 | 0.00 | 0.00 | 0.00 | 29 | 1022.5 |
| 20260508071551 | 58 | 51 | 0.0 | 0.0 | 0.00 | 0.00 | 0.00 | 31 | 1022.5 |
| 20260508070045 | 56 | 130 | 0.0 | 0.0 | 0.00 | 0.00 | 0.00 | 40 | 1022.5 |
| 20260508064600 | 54 | 129 | 0.0 | 0.0 | 0.00 | 0.00 | 0.00 | 49 | 1022.4 |
| 20260508061542 | 52 | 128 | 0.0 | 0.0 | 0.00 | 0.00 | 0.00 | 55 | 1022.1 |
| 20260508060034 | 45 | 128 | 0.0 | 0.0 | 0.00 | 0.00 | 0.00 | 59 | 1022.1 |